Date String (YYYY-MM-DD hh:mm:ss) UTC,Instrument flags,Ambient pressure (hPa),Sample flow (lpm),Bypass flow (lpm),Sample temperature (°C),Ambient temperature (°C),ASC tube jacket temperature (°C),LED temperature (°C),Box temperature (°C),Sample RH (%),Span deviation,Mass concentration (μg/m³),Mass concentration (μg/m³),Mass concentration (μg/m³)
DateTimeUTC,F1_M11,P_M11,Q1_M11,Q2_M11,T1_M11,T2_M11,T3_M11,T4_M11,T5_M11,U1_M11,ZSPAN_M11,X0_M11,X2_M11,X1_M11
2021-12-25 04:00:00,,0812.1,5.02,0.00,22.3,21.7,00.0,31.3,24.1,13.9,0000.0,0001.89,0000.47,0000.40
2021-12-25 04:01:00,,0812.2,4.98,0.00,22.3,21.7,00.0,31.3,24.1,14.0,0000.0,0000.60,0000.46,0000.41
2021-12-25 04:02:00,,0812.1,5.00,0.00,22.3,21.7,00.0,31.3,24.1,14.0,0000.0,0000.57,0000.45,0000.40
2021-12-25 04:03:00,,0812.2,5.00,0.00,22.3,21.7,00.0,31.3,24.1,14.0,0000.0,0000.52,0000.42,0000.39
2021-12-25 04:04:00,,0812.2,4.99,0.00,22.3,21.7,00.0,31.3,24.1,14.0,0000.0,0000.51,0000.41,0000.39
2021-12-25 04:05:00,,0812.1,5.01,0.00,22.3,21.7,00.0,31.3,24.1,14.0,0000.0,0000.52,0000.42,0000.39
2021-12-25 04:06:00,,0812.2,5.00,0.00,22.3,21.7,00.0,31.3,24.1,13.9,0000.0,0000.53,0000.42,0000.40
2021-12-25 04:07:00,,0812.1,4.99,0.00,22.4,21.7,00.0,31.3,24.1,13.9,0000.0,0000.55,0000.43,0000.40
2021-12-25 04:08:00,,0812.2,4.99,0.00,22.4,21.8,00.0,31.3,24.1,13.9,0000.0,0000.55,0000.43,0000.40
2021-12-25 04:09:00,,0812.2,5.00,0.00,22.4,21.8,00.0,31.3,24.2,13.9,0000.0,0000.55,0000.44,0000.41
2021-12-25 04:10:00,,0812.1,5.02,0.00,22.4,21.8,00.0,31.3,24.2,14.0,0000.0,0000.56,0000.45,0000.42
2021-12-25 04:11:00,,0812.1,4.98,0.00,22.4,21.8,00.0,31.3,24.2,13.9,0000.0,0000.58,0000.46,0000.43
2021-12-25 04:12:00,,0812.1,5.01,0.00,22.4,21.8,00.0,31.4,24.2,13.9,0000.0,0000.60,0000.47,0000.44
2021-12-25 04:13:00,,0812.2,5.01,0.00,22.4,21.8,00.0,31.4,24.2,14.0,0000.0,0000.61,0000.48,0000.45
2021-12-25 04:14:00,,0812.2,4.99,0.00,22.4,21.8,00.0,31.4,24.2,14.0,0000.0,0000.65,0000.50,0000.46
2021-12-25 04:15:00,,0812.1,5.00,0.00,22.4,21.8,00.0,31.4,24.1,14.1,0000.0,0000.69,0000.53,0000.48
2021-12-25 04:16:00,,0812.2,5.01,0.00,22.4,21.8,00.0,31.4,24.1,14.2,0000.0,0000.70,0000.53,0000.49
2021-12-25 04:17:00,,0812.2,5.01,0.00,22.4,21.8,00.0,31.4,24.1,14.3,0000.0,0000.70,0000.54,0000.50
2021-12-25 04:18:00,,0812.1,4.99,0.00,22.4,21.7,00.0,31.4,24.1,14.4,0000.0,0000.68,0000.53,0000.50
2021-12-25 04:19:00,,0812.1,4.99,0.00,22.4,21.7,00.0,31.4,24.1,14.4,0000.0,0000.67,0000.53,0000.49
2021-12-25 04:20:00,,0812.2,5.00,0.00,22.4,21.7,00.0,31.4,24.1,14.4,0000.0,0000.67,0000.52,0000.47
2021-12-25 04:21:00,,0812.2,5.00,0.00,22.4,21.7,00.0,31.4,24.1,14.4,0000.0,0000.68,0000.52,0000.46
2021-12-25 04:22:00,,0812.1,5.00,0.00,22.4,21.7,00.0,31.4,24.1,14.4,0000.0,0000.65,0000.50,0000.44
2021-12-25 04:23:00,,0812.1,4.99,0.00,22.4,21.7,00.0,31.4,24.1,14.5,0000.0,0000.73,0000.52,0000.43
2021-12-25 04:24:00,,0812.1,4.99,0.00,22.4,21.7,00.0,31.4,24.1,14.4,0000.0,0000.75,0000.52,0000.41
2021-12-25 04:25:00,,0812.2,5.02,0.00,22.4,21.7,00.0,31.4,24.1,14.5,0000.0,0000.69,0000.49,0000.40
2021-12-25 04:26:00,,0812.2,5.00,0.00,22.4,21.6,00.0,31.4,24.0,14.4,0000.0,0000.66,0000.46,0000.37
2021-12-25 04:27:00,,0812.1,5.00,0.00,22.4,21.6,00.0,31.4,24.0,14.4,0000.0,0000.67,0000.46,0000.36
2021-12-25 04:28:00,,0812.2,5.00,0.00,22.4,21.6,00.0,31.4,24.0,14.4,0000.0,0000.65,0000.44,0000.34
2021-12-25 04:29:00,,0812.1,5.02,0.00,22.4,21.6,00.0,31.4,24.0,14.3,0000.0,0000.64,0000.44,0000.33
2021-12-25 04:30:00,,0812.1,4.99,0.00,22.3,21.5,00.0,31.4,24.0,14.2,0000.0,0000.64,0000.43,0000.34
2021-12-25 04:31:00,,0812.2,4.99,0.00,22.3,21.5,00.0,31.4,23.9,14.2,0000.0,0000.63,0000.43,0000.35
2021-12-25 04:32:00,,0812.1,5.00,0.00,22.2,21.5,00.0,31.4,23.9,14.2,0000.0,0000.60,0000.42,0000.35
2021-12-25 04:33:00,,0812.2,5.01,0.00,22.2,21.4,00.0,31.4,23.8,14.2,0000.0,0000.59,0000.43,0000.36
2021-12-25 04:34:00,,0812.2,5.01,0.00,22.2,21.4,00.0,31.3,23.8,14.2,0000.0,0000.51,0000.40,0000.36
2021-12-25 04:35:00,,0812.2,5.00,0.00,22.2,21.3,00.0,31.3,23.8,14.3,0000.0,0000.48,0000.40,0000.37
2021-12-25 04:36:00,,0812.2,5.00,0.00,22.2,21.3,00.0,31.3,23.8,14.3,0000.0,0000.54,0000.44,0000.39
2021-12-25 04:37:00,,0812.2,4.99,0.00,22.2,21.3,00.0,31.3,23.8,14.4,0000.0,0000.56,0000.45,0000.41
2021-12-25 04:38:00,,0812.1,5.01,0.00,22.2,21.3,00.0,31.3,23.8,14.4,0000.0,0000.54,0000.45,0000.42
2021-12-25 04:39:00,,0812.1,5.00,0.00,22.2,21.4,00.0,31.3,23.8,14.3,0000.0,0000.55,0000.45,0000.42
2021-12-25 04:40:00,,0812.0,5.00,0.00,22.2,21.4,00.0,31.3,23.8,14.2,0000.0,0000.56,0000.45,0000.42
2021-12-25 04:41:00,,0812.1,5.00,0.00,22.2,21.4,00.0,31.3,23.8,14.1,0000.0,0000.58,0000.45,0000.41
2021-12-25 04:42:00,,0812.1,5.01,0.00,22.2,21.4,00.0,31.3,23.8,14.1,0000.0,0000.57,0000.44,0000.39
2021-12-25 04:43:00,,0812.1,5.02,0.00,22.2,21.4,00.0,31.3,23.8,14.1,0000.0,0000.56,0000.43,0000.38
2021-12-25 04:44:00,,0812.1,5.00,0.00,22.2,21.4,00.0,31.3,23.8,14.2,0000.0,0000.54,0000.41,0000.37
2021-12-25 04:45:00,,0812.1,5.00,0.00,22.2,21.4,00.0,31.2,23.8,14.1,0000.0,0000.54,0000.41,0000.36
2021-12-25 04:46:00,,0812.1,5.00,0.00,22.2,21.4,00.0,31.2,23.8,14.1,0000.0,0000.54,0000.40,0000.35
2021-12-25 04:47:00,,0812.1,5.01,0.00,22.2,21.4,00.0,31.2,23.8,14.2,0000.0,0000.49,0000.36,0000.33
2021-12-25 04:48:00,,0812.1,5.00,0.00,22.2,21.4,00.0,31.2,23.8,14.2,0000.0,0000.47,0000.35,0000.32
2021-12-25 04:49:00,,0812.1,5.00,0.00,22.2,21.4,00.0,31.2,23.8,14.2,0000.0,0000.46,0000.34,0000.31
2021-12-25 04:50:00,,0812.1,4.99,0.00,22.2,21.9,00.0,31.3,24.0,14.1,0000.0,0000.45,0000.33,0000.30
2021-12-25 04:51:00,,0812.1,5.01,0.00,22.4,22.7,00.0,31.3,24.3,14.0,0000.0,0000.43,0000.33,0000.30
2021-12-25 04:52:00,,0812.1,4.99,0.00,22.5,22.9,00.0,31.4,24.5,14.0,0000.0,0000.40,0000.32,0000.31
2021-12-25 04:53:00,,0812.1,4.99,0.00,22.5,22.7,00.0,31.4,24.4,13.9,0000.0,0000.45,0000.34,0000.31
2021-12-25 04:54:00,,0812.1,5.01,0.00,22.5,22.5,00.0,31.4,24.4,13.9,0000.0,0000.49,0000.36,0000.32
2021-12-25 04:55:00,,0812.1,4.99,0.00,22.5,22.4,00.0,31.4,24.3,13.9,0000.0,0000.50,0000.37,0000.33
2021-12-25 04:56:00,,0812.0,5.02,0.00,22.5,22.2,00.0,31.4,24.2,13.9,0000.0,0000.51,0000.37,0000.33
2021-12-25 04:57:00,,0812.0,4.99,0.00,22.5,22.0,00.0,31.4,24.2,13.8,0000.0,0000.52,0000.38,0000.34
2021-12-25 04:58:00,,0811.8,5.00,0.00,22.4,21.9,00.0,31.4,24.1,13.8,0000.0,0000.53,0000.39,0000.34
2021-12-25 04:59:00,,0811.8,5.00,0.00,22.4,21.8,00.0,31.4,24.0,13.8,0000.0,0000.53,0000.39,0000.34
